This demonstration page uses our WeatherBlox Daily Observations layout. Learn more.

Left ArrowRight Arrow

44.8408, -93.29828

Hourly Observations for February 16, 2022

Temp ( °F °C ) Dew Point ( °F °C ) Humidity (%) Winds ( mph kmh ) Pressure ( in mb ) Visibility ( mi km ) Precip ( " mm )
12:53 am 00:53 Cloudy 26 -3.3 20 -6.7 78 78 Calm 29.67 1005 8 13 0.00 0.00
1:53 am 01:53 Cloudy 25 -3.9 20 -6.7 81 81 NW 5 7 29.66 1004 7 11 0.00 0.00
2:53 am 02:53 Cloudy with Mist and Fog 24 -4.4 20 -6.7 84 84 NW 7 11 29.66 1004 6 10 0.00 0.00
3:53 am 03:53 Cloudy 22 -5.6 18 -7.8 85 85 NW 7 11 29.67 1005 7 11 0.00 0.00
4:53 am 04:53 Cloudy 23 -5 18 -7.8 81 81 NW 6 9 29.70 1006 7 11 0.00 0.00
5:53 am 05:53 Cloudy 23 -5 18 -7.8 81 81 NNW 10 17 29.72 1006 7 11 0.00 0.00
6:53 am 06:53 Cloudy 24 -4.4 17 -8.3 75 75 NNW 10 17 29.75 1008 8 13 0.00 0.00
6:59 am 06:59 Cloudy 24 -4.4 17 -8.3 75 75 NW 9 15 29.78 1009 8 13 0.00 0.00
7:08 am 07:08 Cloudy 24 -4.4 17 -8.3 75 75 NNW 9 15 29.79 1009 8 13 0.00 0.00
7:27 am 07:27 Cloudy 24 -4.4 18 -7.8 77 77 NW 10 17 29.80 1009 8 13 0.00 0.00
7:53 am 07:53 Cloudy 25 -3.9 18 -7.8 75 75 NW 12 19 29.79 1009 8 13 0.00 0.00
8:53 am 08:53 Cloudy 25 -3.9 17 -8.3 72 72 NNW 14 22 29.81 1010 7 11 0.00 0.00
9:35 am 09:35 Cloudy 25 -3.9 17 -8.3 72 72 NW 13 20 29.85 1011 8 13 0.00 0.00
9:49 am 09:49 Cloudy 25 -4 18 -8 74 74 NW 15 24 29.86 1011 7 11 0.00 0.00
9:53 am 09:53 Cloudy 25 -3.9 17 -8.3 72 72 NW 15 24 29.83 1010 7 11 0.00 0.00
10:53 am 10:53 Cloudy 25 -3.9 17 -8.3 72 72 NW 13 20 29.84 1011 8 13 0.00 0.00
11:02 am 11:02 Cloudy 25 -3.9 17 -8.3 72 72 NW 14 22 29.86 1011 8 13 0.00 0.00
11:16 am 11:16 Cloudy 26 -3.3 17 -8.3 69 69 NW 15 24 29.87 1011 8 13 0.00 0.00
11:53 am 11:53 Mostly Cloudy 27 -2.8 17 -8.3 66 66 NNW 12 19 29.87 1012 8 13 0.00 0.00
12:53 pm 12:53 Mostly Cloudy 27 -2.8 15 -9.4 61 61 NW 15 24 29.88 1012 9 14 0.00 0.00
1:53 pm 13:53 Mostly Cloudy 28 -2.2 16 -8.9 60 60 NNW 16 26 29.88 1012 10 16 0.00 0.00
2:53 pm 14:53 Mostly Cloudy 27 -2.8 14 -10 58 58 NW 16 26 29.91 1013 10 16 0.00 0.00
3:53 pm 15:53 Mostly Cloudy 25 -3.9 13 -10.6 60 60 NW 14 22 29.94 1014 10 16 0.00 0.00
4:53 pm 16:53 Mostly Cloudy 24 -4.4 11 -11.7 57 57 NW 15 24 29.96 1015 10 16 0.00 0.00
5:53 pm 17:53 Mostly Cloudy 22 -5.6 8 -13.3 55 55 NNW 16 26 30.02 1017 10 16 0.00 0.00
6:45 pm 18:45 Mostly Cloudy 22 -5.6 8 -13.3 55 55 NW 12 19 30.10 1019 10 16 0.00 0.00
6:53 pm 18:53 Mostly Cloudy 21 -6.1 9 -12.8 59 59 NW 12 19 30.07 1018 10 16 0.00 0.00
7:53 pm 19:53 Mostly Cloudy 20 -6.7 8 -13.3 60 60 NW 12 19 30.09 1019 10 16 0.00 0.00
8:53 pm 20:53 Mostly Cloudy 20 -6.7 7 -13.9 57 57 NW 12 19 30.13 1020 10 16 0.00 0.00
9:53 pm 21:53 Mostly Cloudy 19 -7.2 6 -14.4 57 57 NNW 15 24 30.15 1021 10 16 0.00 0.00
10:53 pm 22:53 Cloudy 17 -8.3 5 -15 59 59 NNW 20 31 30.16 1021 10 16 0.00 0.00
11:53 pm 23:53 Cloudy 15 -9.4 5 -15 64 64 NNW 14 22 30.21 1023 10 16 0.00 0.00

Powered by AerisWeather